contact: severine.martini@mio.osupytheas.fr, dominique.lefevre@mio.osupytheas.fr
Project:EMSO Ligure-ouest http://www.emso-fr.org/EMSO-France
Sensor Optode, line 4330 Serial 272 
DOI : "https://doi.org/10.17882/97948" 
Title:EMSO Ligure Ouest : Data BathyDock capteur Optode - deploiement "2023-04-28"
Datetime,Profondeur,Latitude,Longitude,optode_type,serial,O2_concentration,O2_saturation,Temperature,Calibrated_Phase,Temp_Compensated_Phase,phase_blue_light,phase_red_light,Amplitude_blue_light,Amplitude_red_light,thermistor_bridge
time,m,degree_north,degree_east,1,1,umol.l-1,%,degree_C,degree,degree,degree,degree,mV,mV,mV
2023-12-04T00:00:07,2420,42.8014,5.9826,4330,272,186.692,57.178,13.310,36.024,36.605,41.189,4.585,295.6,545.0,291.2
2023-12-04T00:03:07,2420,42.8014,5.9826,4330,272,186.819,57.217,13.310,36.017,36.597,41.193,4.596,295.5,545.0,291.2
2023-12-04T00:06:07,2420,42.8014,5.9826,4330,272,186.641,57.161,13.309,36.029,36.609,41.205,4.596,295.5,544.9,291.3
2023-12-04T00:09:07,2420,42.8014,5.9826,4330,272,186.638,57.163,13.311,36.028,36.608,41.201,4.593,295.6,545.0,291.2
2023-12-04T00:12:07,2420,42.8014,5.9826,4330,272,186.770,57.201,13.309,36.020,36.600,41.193,4.593,295.6,544.9,291.3
2023-12-04T00:15:07,2420,42.8014,5.9826,4330,272,186.480,57.116,13.312,36.038,36.618,41.204,4.586,295.5,544.9,291.2
2023-12-04T00:18:08,2420,42.8014,5.9826,4330,272,186.819,57.221,13.313,36.016,36.596,41.187,4.591,295.5,544.9,291.1
2023-12-04T00:21:08,2420,42.8014,5.9826,4330,272,186.640,57.162,13.310,36.028,36.608,41.199,4.591,295.6,544.9,291.2
2023-12-04T00:24:08,2420,42.8014,5.9826,4330,272,186.823,57.217,13.309,36.017,36.597,41.183,4.586,295.5,544.9,291.3
2023-12-04T00:27:08,2420,42.8014,5.9826,4330,272,186.735,57.190,13.309,36.023,36.603,41.195,4.592,295.6,544.9,291.3
2023-12-04T00:30:08,2420,42.8014,5.9826,4330,272,186.492,57.118,13.310,36.038,36.618,41.203,4.585,295.6,544.9,291.2
2023-12-04T00:33:07,2420,42.8014,5.9826,4330,272,186.495,57.125,13.315,36.035,36.615,41.200,4.585,295.5,544.9,291.0
2023-12-04T00:36:07,2420,42.8014,5.9826,4330,272,186.486,57.115,13.310,36.038,36.618,41.210,4.592,295.6,544.9,291.2
2023-12-04T00:39:07,2420,42.8014,5.9826,4330,272,186.544,57.132,13.309,36.034,36.614,41.202,4.587,295.5,544.9,291.2
2023-12-04T00:42:07,2420,42.8014,5.9826,4330,272,186.617,57.155,13.310,36.030,36.610,41.201,4.591,295.5,544.9,291.2
2023-12-04T00:45:07,2420,42.8014,5.9826,4330,272,186.659,57.166,13.308,36.028,36.608,41.193,4.585,295.5,544.9,291.3
2023-12-04T00:48:08,2420,42.8014,5.9826,4330,272,186.746,57.196,13.310,36.021,36.602,41.184,4.583,295.5,544.8,291.2
2023-12-04T00:51:08,2420,42.8014,5.9826,4330,272,186.832,57.224,13.312,36.015,36.595,41.183,4.588,295.5,545.0,291.2
2023-12-04T00:54:08,2420,42.8014,5.9826,4330,272,186.481,57.111,13.308,36.039,36.620,41.210,4.591,295.6,544.9,291.3
2023-12-04T00:57:08,2420,42.8014,5.9826,4330,272,186.734,57.189,13.308,36.023,36.604,41.187,4.584,295.5,544.9,291.3
2023-12-04T01:00:08,2420,42.8014,5.9826,4330,272,187.131,57.310,13.308,35.997,36.577,41.173,4.595,295.5,545.0,291.3
2023-12-04T01:03:07,2420,42.8014,5.9826,4330,272,186.756,57.197,13.309,36.021,36.601,41.192,4.591,295.6,544.8,291.3
2023-12-04T01:06:07,2420,42.8014,5.9826,4330,272,186.360,57.072,13.306,36.048,36.628,41.218,4.590,295.5,545.0,291.4
2023-12-04T01:09:07,2420,42.8014,5.9826,4330,272,186.584,57.142,13.307,36.034,36.614,41.207,4.593,295.5,544.9,291.3
2023-12-04T01:12:07,2420,42.8014,5.9826,4330,272,186.887,57.235,13.308,36.013,36.594,41.184,4.591,295.5,545.0,291.3
2023-12-04T01:15:08,2420,42.8014,5.9826,4330,272,186.622,57.158,13.311,36.029,36.609,41.201,4.592,295.5,544.9,291.2
2023-12-04T01:18:08,2420,42.8014,5.9826,4330,272,186.907,57.241,13.307,36.012,36.592,41.186,4.594,295.6,545.0,291.3
2023-12-04T01:21:08,2420,42.8014,5.9826,4330,272,186.541,57.133,13.311,36.034,36.614,41.206,4.591,295.5,544.9,291.2
2023-12-04T01:24:08,2420,42.8014,5.9826,4330,272,186.643,57.160,13.307,36.029,36.609,41.199,4.590,295.6,545.0,291.3
2023-12-04T01:27:07,2420,42.8014,5.9826,4330,272,186.558,57.135,13.308,36.035,36.615,41.204,4.590,295.5,544.9,291.3
2023-12-04T01:30:07,2420,42.8014,5.9826,4330,272,186.624,57.153,13.307,36.031,36.611,41.196,4.585,295.6,545.0,291.3
2023-12-04T01:33:08,2420,42.8014,5.9826,4330,272,186.623,57.155,13.308,36.030,36.610,41.204,4.594,295.6,545.0,291.3
2023-12-04T01:36:07,2420,42.8014,5.9826,4330,272,186.564,57.137,13.308,36.034,36.614,41.205,4.591,295.5,545.0,291.3
2023-12-04T01:39:07,2420,42.8014,5.9826,4330,272,186.839,57.222,13.309,36.016,36.596,41.185,4.588,295.6,545.0,291.3
2023-12-04T01:42:07,2420,42.8014,5.9826,4330,272,186.714,57.182,13.308,36.025,36.605,41.199,4.594,295.5,545.0,291.3
2023-12-04T01:45:07,2420,42.8014,5.9826,4330,272,186.652,57.165,13.309,36.028,36.608,41.197,4.589,295.6,545.0,291.3
2023-12-04T01:48:08,2420,42.8014,5.9826,4330,272,186.664,57.168,13.308,36.028,36.608,41.195,4.587,295.5,545.0,291.3
2023-12-04T01:51:08,2420,42.8014,5.9826,4330,272,186.864,57.228,13.308,36.014,36.595,41.189,4.594,295.5,544.9,291.3
2023-12-04T01:54:08,2420,42.8014,5.9826,4330,272,186.757,57.197,13.309,36.021,36.602,41.187,4.586,295.6,544.9,291.3
2023-12-04T01:57:08,2420,42.8014,5.9826,4330,272,186.715,57.183,13.308,36.024,36.604,41.194,4.589,295.7,544.9,291.3
2023-12-04T02:00:07,2420,42.8014,5.9826,4330,272,186.810,57.212,13.308,36.018,36.598,41.194,4.595,295.6,544.9,291.3
2023-12-04T02:03:07,2420,42.8014,5.9826,4330,272,186.631,57.154,13.305,36.031,36.611,41.199,4.588,295.5,545.0,291.4
2023-12-04T02:06:07,2420,42.8014,5.9826,4330,272,186.922,57.247,13.309,36.010,36.591,41.177,4.586,295.5,545.0,291.3
2023-12-04T02:09:07,2420,42.8014,5.9826,4330,272,186.687,57.175,13.308,36.026,36.607,41.194,4.587,295.6,545.0,291.3
2023-12-04T02:12:08,2420,42.8014,5.9826,4330,272,186.723,57.184,13.307,36.024,36.604,41.197,4.593,295.6,544.9,291.3
2023-12-04T02:15:08,2420,42.8014,5.9826,4330,272,186.696,57.177,13.308,36.026,36.606,41.195,4.589,295.5,545.0,291.3
2023-12-04T02:18:08,2420,42.8014,5.9826,4330,272,186.534,57.131,13.311,36.034,36.614,41.198,4.584,295.5,545.0,291.2
2023-12-04T02:21:08,2420,42.8014,5.9826,4330,272,186.861,57.229,13.309,36.014,36.594,41.186,4.592,295.6,545.0,291.3
2023-12-04T02:24:08,2420,42.8014,5.9826,4330,272,186.776,57.202,13.308,36.020,36.600,41.191,4.591,295.5,545.0,291.3
2023-12-04T02:27:07,2420,42.8014,5.9826,4330,272,187.072,57.291,13.307,36.002,36.582,41.170,4.588,295.6,544.9,291.3
2023-12-04T02:30:07,2420,42.8014,5.9826,4330,272,186.744,57.193,13.309,36.022,36.602,41.190,4.588,295.5,544.9,291.3
2023-12-04T02:33:08,2420,42.8014,5.9826,4330,272,186.617,57.155,13.309,36.030,36.610,41.200,4.590,295.5,545.0,291.2
2023-12-04T02:36:08,2420,42.8014,5.9826,4330,272,186.627,57.156,13.308,36.029,36.610,41.196,4.587,295.5,544.9,291.3
2023-12-04T02:39:07,2420,42.8014,5.9826,4330,272,186.584,57.143,13.308,36.033,36.613,41.201,4.588,295.6,544.9,291.3
2023-12-04T02:42:07,2420,42.8014,5.9826,4330,272,186.493,57.118,13.310,36.038,36.618,41.203,4.585,295.6,545.0,291.2
2023-12-04T02:45:07,2420,42.8014,5.9826,4330,272,186.676,57.171,13.308,36.027,36.607,41.195,4.588,295.6,544.9,291.3
2023-12-04T02:48:07,2420,42.8014,5.9826,4330,272,186.668,57.168,13.307,36.028,36.608,41.199,4.591,295.6,544.9,291.3
2023-12-04T02:51:07,2420,42.8014,5.9826,4330,272,186.350,57.075,13.311,36.047,36.627,41.217,4.590,295.5,544.9,291.2
2023-12-04T02:54:08,2420,42.8014,5.9826,4330,272,186.718,57.186,13.309,36.023,36.604,41.193,4.590,295.5,544.8,291.2
2023-12-04T02:57:08,2420,42.8014,5.9826,4330,272,186.729,57.190,13.310,36.022,36.603,41.191,4.588,295.7,544.9,291.2
2023-12-04T03:00:08,2420,42.8014,5.9826,4330,272,186.919,57.246,13.309,36.011,36.591,41.179,4.588,295.6,545.0,291.3
2023-12-04T03:03:07,2420,42.8014,5.9826,4330,272,186.400,57.088,13.309,36.044,36.624,41.213,4.589,295.5,544.9,291.3
2023-12-04T03:06:07,2420,42.8014,5.9826,4330,272,186.544,57.135,13.311,36.034,36.614,41.205,4.592,295.5,544.9,291.2
2023-12-04T03:09:07,2420,42.8014,5.9826,4330,272,186.628,57.161,13.312,36.028,36.608,41.200,4.592,295.6,545.0,291.2
2023-12-04T03:12:07,2420,42.8014,5.9826,4330,272,186.579,57.141,13.307,36.034,36.614,41.204,4.590,295.6,544.9,291.3
2023-12-04T03:15:08,2420,42.8014,5.9826,4330,272,186.601,57.151,13.310,36.030,36.610,41.199,4.588,295.5,544.9,291.2
2023-12-04T03:18:08,2420,42.8014,5.9826,4330,272,186.828,57.220,13.310,36.016,36.596,41.182,4.586,295.6,545.0,291.2
2023-12-04T03:21:08,2420,42.8014,5.9826,4330,272,186.267,57.046,13.308,36.053,36.633,41.221,4.588,295.5,544.9,291.3
2023-12-04T03:24:07,2420,42.8014,5.9826,4330,272,186.217,57.030,13.308,36.057,36.637,41.225,4.588,295.6,544.9,291.3
2023-12-04T03:27:07,2420,42.8014,5.9826,4330,272,186.427,57.093,13.307,36.043,36.623,41.211,4.588,295.5,545.0,291.3
2023-12-04T03:30:07,2420,42.8014,5.9826,4330,272,186.635,57.157,13.307,36.030,36.610,41.199,4.589,295.6,545.0,291.3
2023-12-04T03:33:08,2420,42.8014,5.9826,4330,272,186.629,57.156,13.307,36.030,36.610,41.201,4.590,295.6,544.9,291.3
2023-12-04T03:36:07,2420,42.8014,5.9826,4330,272,186.696,57.177,13.308,36.025,36.605,41.193,4.587,295.6,545.0,291.3
2023-12-04T03:39:07,2420,42.8014,5.9826,4330,272,186.510,57.132,13.317,36.033,36.613,41.201,4.588,295.5,544.9,291.0
2023-12-04T03:42:07,2420,42.8014,5.9826,4330,272,186.714,57.181,13.307,36.024,36.605,41.192,4.588,295.6,544.9,291.3
2023-12-04T03:45:07,2420,42.8014,5.9826,4330,272,186.590,57.148,13.311,36.031,36.611,41.200,4.588,295.6,544.9,291.2
2023-12-04T03:48:07,2420,42.8014,5.9826,4330,272,186.756,57.198,13.310,36.021,36.601,41.190,4.589,295.6,544.9,291.2
2023-12-04T03:51:08,2420,42.8014,5.9826,4330,272,186.620,57.157,13.311,36.029,36.609,41.198,4.589,295.6,544.9,291.2
2023-12-04T03:54:08,2420,42.8014,5.9826,4330,272,186.617,57.160,13.314,36.028,36.608,41.202,4.593,295.6,544.9,291.1
2023-12-04T03:57:08,2420,42.8014,5.9826,4330,272,186.867,57.231,13.309,36.014,36.594,41.186,4.592,295.6,544.9,291.2
2023-12-04T04:00:08,2420,42.8014,5.9826,4330,272,186.709,57.183,13.309,36.024,36.604,41.193,4.589,295.5,545.0,291.2
2023-12-04T04:03:07,2420,42.8014,5.9826,4330,272,186.780,57.206,13.310,36.019,36.599,41.190,4.591,295.6,545.0,291.2
2023-12-04T04:06:07,2420,42.8014,5.9826,4330,272,186.786,57.213,13.314,36.016,36.597,41.188,4.591,295.5,545.0,291.1
2023-12-04T04:09:07,2420,42.8014,5.9826,4330,272,186.640,57.164,13.311,36.027,36.608,41.201,4.594,295.6,544.9,291.2
2023-12-04T04:12:07,2420,42.8014,5.9826,4330,272,186.489,57.115,13.309,36.039,36.619,41.205,4.587,295.5,544.9,291.3
2023-12-04T04:15:08,2420,42.8014,5.9826,4330,272,186.537,57.132,13.310,36.034,36.614,41.206,4.592,295.6,544.9,291.2
2023-12-04T04:18:08,2420,42.8014,5.9826,4330,272,186.578,57.140,13.307,36.033,36.613,41.205,4.592,295.6,544.9,291.3
2023-12-04T04:21:08,2420,42.8014,5.9826,4330,272,186.776,57.203,13.309,36.019,36.600,41.188,4.589,295.5,544.9,291.3
2023-12-04T04:24:08,2420,42.8014,5.9826,4330,272,186.761,57.202,13.312,36.019,36.599,41.189,4.590,295.6,544.9,291.2
2023-12-04T04:27:08,2420,42.8014,5.9826,4330,272,186.515,57.127,13.312,36.035,36.615,41.202,4.586,295.5,544.9,291.2
2023-12-04T04:30:07,2420,42.8014,5.9826,4330,272,186.588,57.147,13.310,36.032,36.612,41.202,4.591,295.6,544.9,291.2
2023-12-04T04:33:07,2420,42.8014,5.9826,4330,272,186.775,57.204,13.310,36.019,36.600,41.190,4.591,295.5,544.9,291.2
2023-12-04T04:36:07,2420,42.8014,5.9826,4330,272,186.701,57.185,13.313,36.022,36.602,41.193,4.590,295.7,544.9,291.1
2023-12-04T04:39:07,2420,42.8014,5.9826,4330,272,186.585,57.154,13.316,36.029,36.609,41.202,4.593,295.5,544.9,291.0
2023-12-04T04:42:08,2420,42.8014,5.9826,4330,272,186.635,57.176,13.321,36.023,36.603,41.196,4.593,295.5,544.8,290.9
2023-12-04T04:45:08,2420,42.8014,5.9826,4330,272,186.544,57.157,13.328,36.025,36.605,41.197,4.591,295.6,544.8,290.6
2023-12-04T04:48:08,2420,42.8014,5.9826,4330,272,186.602,57.169,13.324,36.024,36.604,41.195,4.591,295.5,544.9,290.8
2023-12-04T04:51:08,2420,42.8014,5.9826,4330,272,186.638,57.184,13.327,36.020,36.600,41.189,4.589,295.6,544.8,290.7
2023-12-04T04:54:07,2420,42.8014,5.9826,4330,272,186.733,57.202,13.319,36.018,36.598,41.186,4.588,295.6,544.9,290.9
2023-12-04T04:57:07,2420,42.8014,5.9826,4330,272,186.388,57.095,13.318,36.041,36.621,41.208,4.588,295.6,544.8,291.0
2023-12-04T05:00:07,2420,42.8014,5.9826,4330,272,186.513,57.133,13.317,36.033,36.613,41.202,4.589,295.5,544.9,291.0
2023-12-04T05:03:07,2420,42.8014,5.9826,4330,272,186.299,57.078,13.326,36.042,36.622,41.213,4.591,295.7,544.9,290.7
2023-12-04T05:06:07,2420,42.8014,5.9826,4330,272,186.554,57.142,13.315,36.032,36.612,41.203,4.592,295.6,544.9,291.1
2023-12-04T05:09:07,2420,42.8014,5.9826,4330,272,186.570,57.144,13.312,36.031,36.611,41.201,4.590,295.6,544.9,291.1
2023-12-04T05:12:07,2420,42.8014,5.9826,4330,272,186.545,57.143,13.318,36.030,36.610,41.199,4.588,295.6,544.8,291.0
2023-12-04T05:15:07,2420,42.8014,5.9826,4330,272,186.525,57.133,13.314,36.033,36.613,41.205,4.592,295.6,544.9,291.1
2023-12-04T05:18:08,2420,42.8014,5.9826,4330,272,186.460,57.120,13.320,36.035,36.615,41.207,4.592,295.6,544.9,290.9
2023-12-04T05:21:08,2420,42.8014,5.9826,4330,272,186.502,57.142,13.327,36.029,36.609,41.193,4.584,295.6,544.9,290.7
2023-12-04T05:24:08,2420,42.8014,5.9826,4330,272,186.301,57.082,13.328,36.041,36.621,41.213,4.591,295.5,544.8,290.6
2023-12-04T05:27:08,2420,42.8014,5.9826,4330,272,186.536,57.155,13.329,36.026,36.606,41.196,4.590,295.6,544.8,290.6
2023-12-04T05:30:07,2420,42.8014,5.9826,4330,272,186.502,57.132,13.319,36.033,36.613,41.203,4.591,295.6,544.8,290.9
2023-12-04T05:33:07,2420,42.8014,5.9826,4330,272,186.392,57.110,13.328,36.035,36.615,41.207,4.592,295.6,544.8,290.6
2023-12-04T05:36:07,2420,42.8014,5.9826,4330,272,186.450,57.122,13.324,36.034,36.614,41.201,4.588,295.6,544.8,290.8
2023-12-04T05:39:08,2420,42.8014,5.9826,4330,272,186.481,57.144,13.333,36.027,36.607,41.201,4.593,295.6,544.8,290.5
2023-12-04T05:42:08,2420,42.8014,5.9826,4330,272,186.449,57.125,13.327,36.032,36.613,41.204,4.592,295.6,544.8,290.7
2023-12-04T05:45:08,2420,42.8014,5.9826,4330,272,186.318,57.082,13.324,36.042,36.622,41.216,4.594,295.6,544.8,290.8
2023-12-04T05:48:08,2420,42.8014,5.9826,4330,272,186.491,57.132,13.321,36.032,36.612,41.204,4.591,295.5,544.8,290.9
2023-12-04T05:51:08,2420,42.8014,5.9826,4330,272,186.508,57.148,13.330,36.027,36.607,41.195,4.588,295.6,544.8,290.6
2023-12-04T05:54:07,2420,42.8014,5.9826,4330,272,186.410,57.121,13.333,36.032,36.612,41.205,4.593,295.6,544.8,290.5
2023-12-04T05:57:07,2420,42.8014,5.9826,4330,272,186.351,57.101,13.331,36.037,36.617,41.207,4.590,295.6,544.8,290.5
2023-12-04T06:00:07,2420,42.8014,5.9826,4330,272,186.333,57.082,13.320,36.043,36.623,41.215,4.592,295.6,544.8,290.9
2023-12-04T06:03:07,2420,42.8014,5.9826,4330,272,186.333,57.078,13.317,36.045,36.625,41.213,4.588,295.7,544.9,291.0
2023-12-04T06:06:07,2420,42.8014,5.9826,4330,272,186.562,57.144,13.314,36.031,36.611,41.202,4.590,295.7,544.9,291.1
2023-12-04T06:09:07,2420,42.8014,5.9826,4330,272,186.429,57.109,13.319,36.037,36.617,41.211,4.593,295.7,544.8,290.9
2023-12-04T06:12:07,2420,42.8014,5.9826,4330,272,186.747,57.198,13.312,36.020,36.601,41.189,4.588,295.6,544.9,291.2
2023-12-04T06:15:07,2420,42.8014,5.9826,4330,272,186.692,57.183,13.313,36.023,36.603,41.193,4.590,295.6,544.9,291.1
2023-12-04T06:18:07,2420,42.8014,5.9826,4330,272,186.619,57.173,13.323,36.023,36.603,41.191,4.588,295.6,544.9,290.8
2023-12-04T06:21:08,2420,42.8014,5.9826,4330,272,186.390,57.098,13.319,36.040,36.620,41.210,4.590,295.7,544.8,290.9
2023-12-04T06:24:08,2420,42.8014,5.9826,4330,272,186.676,57.177,13.313,36.024,36.604,41.197,4.593,295.6,544.8,291.1
2023-12-04T06:27:08,2420,42.8014,5.9826,4330,272,186.711,57.197,13.320,36.019,36.599,41.193,4.594,295.6,544.9,290.9
2023-12-04T06:30:08,2420,42.8014,5.9826,4330,272,186.450,57.129,13.329,36.031,36.611,41.201,4.590,295.7,544.9,290.6
2023-12-04T06:33:07,2420,42.8014,5.9826,4330,272,186.508,57.144,13.327,36.029,36.609,41.200,4.591,295.5,544.8,290.7
2023-12-04T06:36:07,2420,42.8014,5.9826,4330,272,186.576,57.150,13.315,36.030,36.610,41.202,4.592,295.6,544.9,291.0
2023-12-04T06:39:07,2420,42.8014,5.9826,4330,272,186.635,57.167,13.315,36.026,36.606,41.197,4.591,295.7,544.9,291.1
2023-12-04T06:42:07,2420,42.8014,5.9826,4330,272,186.406,57.099,13.316,36.040,36.620,41.206,4.586,295.5,544.9,291.0
2023-12-04T06:45:07,2420,42.8014,5.9826,4330,272,186.424,57.104,13.316,36.040,36.620,41.208,4.589,295.6,544.9,291.0
2023-12-04T06:48:07,2420,42.8014,5.9826,4330,272,186.462,57.127,13.324,36.033,36.613,41.205,4.592,295.6,544.8,290.8
2023-12-04T06:51:08,2420,42.8014,5.9826,4330,272,186.386,57.098,13.320,36.040,36.620,41.207,4.587,295.6,544.8,290.9
2023-12-04T06:54:08,2420,42.8014,5.9826,4330,272,186.425,57.120,13.328,36.033,36.613,41.202,4.589,295.6,544.8,290.6
2023-12-04T06:57:07,2420,42.8014,5.9826,4330,272,186.473,57.121,13.317,36.035,36.615,41.206,4.591,295.7,544.8,291.0
2023-12-04T07:00:08,2420,42.8014,5.9826,4330,272,186.614,57.165,13.318,36.026,36.606,41.197,4.590,295.6,544.8,291.0
2023-12-04T07:03:07,2420,42.8014,5.9826,4330,272,186.491,57.132,13.321,36.032,36.612,41.204,4.592,295.7,544.8,290.9
2023-12-04T07:06:08,2420,42.8014,5.9826,4330,272,186.358,57.110,13.336,36.034,36.614,41.203,4.589,295.6,544.8,290.4
2023-12-04T07:09:08,2420,42.8014,5.9826,4330,272,186.174,57.044,13.329,36.049,36.629,41.218,4.589,295.7,544.8,290.6
2023-12-04T07:12:08,2420,42.8014,5.9826,4330,272,186.546,57.143,13.318,36.031,36.611,41.207,4.596,295.7,544.8,291.0
2023-12-04T07:15:07,2420,42.8014,5.9826,4330,272,186.544,57.154,13.326,36.026,36.606,41.202,4.595,295.7,544.9,290.7
2023-12-04T07:18:07,2420,42.8014,5.9826,4330,272,186.374,57.099,13.324,36.038,36.619,41.206,4.587,295.7,544.8,290.8
2023-12-04T07:21:07,2420,42.8014,5.9826,4330,272,186.175,57.045,13.329,36.049,36.629,41.218,4.589,295.6,544.9,290.6
2023-12-04T07:24:07,2420,42.8014,5.9826,4330,272,186.239,57.064,13.329,36.045,36.625,41.211,4.586,295.6,544.8,290.6
2023-12-04T07:27:07,2420,42.8014,5.9826,4330,272,186.284,57.063,13.317,36.047,36.627,41.218,4.591,295.7,544.8,291.0
2023-12-04T07:30:07,2420,42.8014,5.9826,4330,272,186.195,57.044,13.324,36.051,36.631,41.220,4.589,295.7,544.8,290.8
2023-12-04T07:33:07,2420,42.8014,5.9826,4330,272,186.307,57.070,13.317,36.046,36.626,41.216,4.590,295.7,544.9,291.0
2023-12-04T07:36:07,2420,42.8014,5.9826,4330,272,186.613,57.161,13.315,36.027,36.607,41.204,4.597,295.7,544.8,291.1
2023-12-04T07:39:07,2420,42.8014,5.9826,4330,272,186.220,57.040,13.314,36.053,36.633,41.217,4.584,295.7,544.9,291.1
2023-12-04T07:42:08,2420,42.8014,5.9826,4330,272,186.157,57.034,13.325,36.052,36.632,41.224,4.592,295.7,544.9,290.7
2023-12-04T07:45:08,2420,42.8014,5.9826,4330,272,186.394,57.091,13.312,36.043,36.623,41.213,4.590,295.7,544.9,291.1
2023-12-04T07:48:08,2420,42.8014,5.9826,4330,272,186.448,57.114,13.318,36.037,36.617,41.208,4.591,295.7,544.9,291.0
2023-12-04T07:51:08,2420,42.8014,5.9826,4330,272,186.265,57.068,13.326,36.045,36.625,41.220,4.595,295.6,544.8,290.7
2023-12-04T07:54:07,2420,42.8014,5.9826,4330,272,186.282,57.071,13.325,36.044,36.624,41.212,4.588,295.7,544.9,290.8
2023-12-04T07:57:07,2420,42.8014,5.9826,4330,272,186.702,57.194,13.319,36.019,36.599,41.191,4.592,295.7,544.8,290.9
2023-12-04T08:00:07,2420,42.8014,5.9826,4330,272,186.331,57.070,13.312,36.047,36.627,41.221,4.594,295.6,544.9,291.2
2023-12-04T08:03:08,2420,42.8014,5.9826,4330,272,186.606,57.149,13.308,36.032,36.612,41.199,4.586,295.7,544.9,291.3
2023-12-04T08:06:07,2420,42.8014,5.9826,4330,272,186.753,57.199,13.311,36.021,36.601,41.192,4.592,295.6,544.9,291.2
2023-12-04T08:09:07,2420,42.8014,5.9826,4330,272,186.357,57.079,13.313,36.045,36.625,41.216,4.591,295.6,544.9,291.1
2023-12-04T08:12:07,2420,42.8014,5.9826,4330,272,186.321,57.064,13.309,36.049,36.629,41.218,4.589,295.7,545.0,291.2
2023-12-04T08:15:07,2420,42.8014,5.9826,4330,272,186.528,57.134,13.314,36.034,36.614,41.207,4.594,295.5,544.9,291.1
2023-12-04T08:18:07,2420,42.8014,5.9826,4330,272,186.680,57.189,13.321,36.020,36.600,41.190,4.590,295.6,544.9,290.9
2023-12-04T08:21:07,2420,42.8014,5.9826,4330,272,186.509,57.125,13.312,36.035,36.615,41.208,4.593,295.6,545.0,291.2
2023-12-04T08:24:07,2420,42.8014,5.9826,4330,272,186.447,57.102,13.309,36.042,36.622,41.205,4.583,295.6,544.9,291.3
2023-12-04T08:27:08,2420,42.8014,5.9826,4330,272,186.383,57.096,13.320,36.040,36.620,41.211,4.590,295.6,544.9,290.9
2023-12-04T08:30:08,2420,42.8014,5.9826,4330,272,186.544,57.144,13.319,36.030,36.611,41.202,4.591,295.7,544.9,290.9
2023-12-04T08:33:07,2420,42.8014,5.9826,4330,272,186.538,57.133,13.311,36.034,36.614,41.203,4.588,295.7,544.9,291.2
2023-12-04T08:36:07,2420,42.8014,5.9826,4330,272,186.463,57.109,13.311,36.040,36.620,41.208,4.589,295.7,544.9,291.2
2023-12-04T08:39:07,2420,42.8014,5.9826,4330,272,186.392,57.099,13.320,36.039,36.619,41.212,4.592,295.7,544.9,290.9
2023-12-04T08:42:07,2420,42.8014,5.9826,4330,272,186.497,57.125,13.315,36.035,36.615,41.206,4.591,295.6,544.8,291.1
2023-12-04T08:45:07,2420,42.8014,5.9826,4330,272,186.358,57.081,13.314,36.045,36.625,41.216,4.591,295.6,544.9,291.1
2023-12-04T08:48:07,2420,42.8014,5.9826,4330,272,186.292,57.063,13.315,36.048,36.628,41.219,4.591,295.6,544.9,291.1
2023-12-04T08:51:08,2420,42.8014,5.9826,4330,272,186.401,57.106,13.323,36.037,36.617,41.205,4.588,295.7,544.8,290.8
2023-12-04T08:54:08,2420,42.8014,5.9826,4330,272,186.383,57.090,13.314,36.043,36.623,41.208,4.585,295.7,544.9,291.1
2023-12-04T08:57:08,2420,42.8014,5.9826,4330,272,186.162,57.021,13.314,36.058,36.638,41.223,4.586,295.6,544.9,291.1
2023-12-04T09:00:08,2420,42.8014,5.9826,4330,272,186.595,57.150,13.311,36.031,36.611,41.203,4.592,295.6,544.9,291.2
2023-12-04T09:03:07,2420,42.8014,5.9826,4330,272,186.367,57.101,13.327,36.038,36.618,41.205,4.587,295.6,544.9,290.7
2023-12-04T09:06:07,2420,42.8014,5.9826,4330,272,186.531,57.142,13.320,36.030,36.610,41.199,4.588,295.6,544.8,290.9
2023-12-04T09:09:07,2420,42.8014,5.9826,4330,272,186.383,57.090,13.315,36.042,36.622,41.210,4.588,295.7,544.8,291.1
2023-12-04T09:12:07,2420,42.8014,5.9826,4330,272,186.582,57.144,13.309,36.032,36.612,41.204,4.592,295.7,544.9,291.2
2023-12-04T09:15:07,2420,42.8014,5.9826,4330,272,186.269,57.047,13.308,36.053,36.633,41.220,4.586,295.6,544.9,291.3
2023-12-04T09:18:08,2420,42.8014,5.9826,4330,272,186.562,57.139,13.310,36.034,36.614,41.203,4.590,295.7,544.9,291.2
2023-12-04T09:21:08,2420,42.8014,5.9826,4330,272,186.390,57.095,13.317,36.041,36.621,41.210,4.589,295.6,544.9,291.0
2023-12-04T09:24:08,2420,42.8014,5.9826,4330,272,186.651,57.168,13.312,36.027,36.607,41.198,4.591,295.6,544.9,291.2
2023-12-04T09:27:08,2420,42.8014,5.9826,4330,272,186.559,57.148,13.318,36.030,36.610,41.197,4.587,295.6,544.9,291.0
2023-12-04T09:30:07,2420,42.8014,5.9826,4330,272,186.510,57.132,13.318,36.033,36.613,41.208,4.595,295.6,544.8,291.0
2023-12-04T09:33:07,2420,42.8014,5.9826,4330,272,186.331,57.074,13.315,36.046,36.626,41.218,4.593,295.6,545.0,291.1
2023-12-04T09:36:07,2420,42.8014,5.9826,4330,272,186.419,57.092,13.308,36.044,36.624,41.208,4.585,295.7,544.9,291.3
2023-12-04T09:39:07,2420,42.8014,5.9826,4330,272,186.316,57.068,13.313,36.048,36.628,41.217,4.589,295.7,544.9,291.1
2023-12-04T09:42:08,2420,42.8014,5.9826,4330,272,186.357,57.083,13.316,36.044,36.624,41.213,4.589,295.7,544.9,291.0
2023-12-04T09:45:08,2420,42.8014,5.9826,4330,272,186.352,57.074,13.310,36.047,36.627,41.213,4.586,295.7,544.9,291.2
2023-12-04T09:48:08,2420,42.8014,5.9826,4330,272,186.409,57.093,13.311,36.042,36.622,41.214,4.592,295.7,544.9,291.2
2023-12-04T09:51:08,2420,42.8014,5.9826,4330,272,186.408,57.088,13.308,36.044,36.624,41.215,4.591,295.7,545.0,291.3
2023-12-04T09:54:08,2420,42.8014,5.9826,4330,272,186.431,57.099,13.310,36.041,36.621,41.210,4.589,295.6,544.9,291.2
2023-12-04T09:57:07,2420,42.8014,5.9826,4330,272,186.645,57.168,13.313,36.026,36.606,41.197,4.591,295.6,544.9,291.1
2023-12-04T10:00:07,2420,42.8014,5.9826,4330,272,186.474,57.110,13.309,36.040,36.620,41.206,4.586,295.7,545.0,291.3